Regional Weather Roundup
Issued by NWS

Home | Current Version | Previous Version | Graphics & Text | Print | Product List | Glossary On
Versions: 1 2 3 4 5 6 7 8 9 10 11 12 13 14 15 16 17 18 19 20 21 22 23 24 25 26 27 28 29 30 31 32 33 34 35 36 37 38 39 40 41 42 43 44 45 46 47 48 49 50
000
ASUS43 KLOT 230908
RWRIL

ILLINOIS REGIONAL WEATHER ROUNDUP
NATIONAL WEATHER SERVICE CHICAGO/ROMEOVILLE IL
400 AM CDT TUE AUG 23 2016

NOTE: "FAIR" INDICATES FEW OR NO CLOUDS BELOW 12,000 FEET WITH NO
SIGNIFICANT WEATHER AND/OR OBSTRUCTIONS TO VISIBILITY.

* THESE STATIONS ARE NOT UNDER NWS QUALITY CONTROL. THEY ALSO MAY NOT
  REPORT WEATHER SUCH AS PRECIPITATION OR FOG.

ILZ001-002-007-009-015-016-024-231000-
NORTHWEST ILLINOIS

CITY           SKY/WX    TMP DP  RH WIND       PRES   REMARKS
MOLINE         CLEAR     62  57  83 E5        30.12F
STERLING*      CLEAR     59  57  93 SE3       30.15F
SAVANNA*       CLEAR     61  58  90 S5        30.13F
$$

ILZ003-004-008-010-011-017-018-231000-
NORTH CENTRAL ILLINOIS

CITY           SKY/WX    TMP DP  RH WIND       PRES   REMARKS
ROCKFORD       PTCLDY    60  56  86 CALM      30.18R
FREEPORT*      CLEAR     59  57  91 S8        30.16S
ROCHELLE*      CLEAR     56  55  96 S6        30.17S
DE KALB*       CLEAR     57  56  95 S7        30.19S
$$

ILZ005-006-012>014-019>023-231000-
NORTHEAST ILLINOIS

CITY           SKY/WX    TMP DP  RH WIND       PRES   REMARKS
CHICAGO-OHARE  CLEAR     62  58  86 S8        30.18R
CHICAGO-MIDWAY CLEAR     65  57  75 S6        30.18S
AURORA         CLEAR     58  56  93 CALM      30.18S
LANSING*       CLEAR     59  55  87 CALM      30.20S
JOLIET*        CLEAR     60  59  97 CALM      30.19S
WAUKEGAN       CLEAR     62  58  86 SW7       30.17R
DUPAGE AIRPORT CLEAR     61  57  87 S3        30.18R
KANKAKEE*      CLEAR     58  56  96 CALM      30.21R
WHEELING       CLEAR     62  57  83 S5        30.19R
MORRIS*        PTCLDY    59  57  95 CALM      30.18S
ROMEOVILLE*    CLEAR     59  56  89 S6        30.19S
NORTHERLY ISL    N/A     67  56  67 SW5         N/A
$$

LMZ740>746-231000-
SOUTHERN LAKE MICHIGAN

STATION/POSITION SKY/WX   TEMP    WIND        PRES    VSBY  WAVE
                          AIR SEA DIR/SP/G                  HT/PER
                          (F)     (DEG/KT/KT) (MB)    (MI)  (FT/S)
SOUTHERN BUOY              74 75  200/ 16/ 17 1021.1R         3/ 5
WILMETTE HARBOR            69 71  220/ 10/ 14   N/A           1/ 2
HARRISON CRIB              70     200/ 12/ 13   N/A
BURNHAM HARBOR             67     220/  6/  9   N/A
CALUMET HARBOR             66     170/  5/  6 1021.6S
BURNS HARBOR               65     190/  9/ 11 1023.0S
MICHIGAN CITY              67     160/ 12/ 14   N/A
MICHIGAN CITY 6N           68 73  190/ 10/ 14   N/A           1/ 2
ST. JOSEPH                 69 74  180/ 10/ 14 1022.6R         2/ 3
$$

ILZ025>027-034>036-040-047-049-050-058-095>099-231000-
WEST-CENTRAL ILLINOIS

CITY           SKY/WX    TMP DP  RH WIND       PRES   REMARKS
QUINCY         CLEAR     62  60  93 SE5       30.13S
GALESBURG*     CLEAR     61  57  88 SE6       30.14S
MACOMB*        CLEAR     59  58  96 S6        30.16S
JACKSONVILLE*  CLEAR     62  58  88 SE5       30.15S
PITTSFIELD*    CLEAR     60  59  96 S3        30.16R
$$

ILZ028>032-037-038-041>044-048-051>054-059>061-231000-
CENTRAL ILLINOIS

CITY           SKY/WX    TMP DP  RH WIND       PRES   REMARKS
PONTIAC        CLEAR     57  57 100 SE3       30.19S
BLOOMINGTON    CLEAR     61  58  90 S5        30.20
DECATUR        CLEAR     61  56  83 SE3       30.19S
PEORIA         CLEAR     63  59  87 CALM      30.16S
LACON*         CLEAR     61  57  87 SE6       30.16S
LINCOLN*       CLEAR     60  59  97 CALM      30.18R
SPRINGFIELD    CLEAR     63  59  87 S6        30.16F
TAYLORVILLE    CLEAR     60  59  95 CALM      30.18S
$$

ILZ033-039-045-046-055>057-062-063-231000-
EAST-CENTRAL ILLINOIS

CITY           SKY/WX    TMP DP  RH WIND       PRES   REMARKS
CHAMPAIGN      CLEAR     58  56  93 SE5       30.20S
RANTOUL*       CLEAR     60  58  92 CALM      30.20S
MATTOON        CLEAR     60  57  89 S5        30.19S
PARIS*         CLEAR     56  56 100 CALM      30.22S
$$

ILZ079-100>102-231000-
SOUTHWEST ILLINOIS

CITY           SKY/WX    TMP DP  RH WIND       PRES   REMARKS
ALTON          CLEAR     58  57  97 CALM      30.17S
BELLEVILLE     CLEAR     60  60 100 CALM      30.16S
CAHOKIA*       CLEAR     62  59  90 CALM      30.16S
SPARTA*        CLEAR     61  60  96 CALM      30.18S
$$

ILZ064>066-069>071-074>076-080>082-084>086-088>090-092>094-231000-
SOUTH-CENTRAL ILLINOIS

CITY           SKY/WX    TMP DP  RH WIND       PRES   REMARKS
CARBONDALE     CLEAR     62  58  86 CALM      30.18S
CAIRO*         MOCLDY    62  62 100 NE3       30.17S
EFFINGHAM*     CLEAR     60  60 100 CALM      30.21S
MARION         CLEAR     64  63  94 CALM      30.19S
MT. VERNON     CLEAR     59  54  82 CALM      30.19S
CENTRALIA*     CLEAR     62  60  93 SE3       30.18R
SALEM*         CLEAR     63  59  88 CALM      30.19R
$$

ILZ067-068-072-073-078-083-087-091-231000-
SOUTHEAST ILLINOIS

CITY           SKY/WX    TMP DP  RH WIND       PRES   REMARKS
LAWRENCEVILLE  CLEAR     60  60 100 NE3       30.21S
FLORA*         CLEAR     59  58  98 CALM      30.19F FOG
FAIRFIELD*     CLEAR     61  61  99 CALM      30.19R
HARRISBURG*    CLEAR     60  60  99 CALM      30.20R
ROBINSON*      FOG       54  54 100 CALM      30.22S VSB 1/2
CARMI*         CLEAR     59  59 100 CALM      30.20R FOG
$$

ABBREVIATIONS USED IN REMARKS
   TC - TEMPERATURE IN CELSIUS
  WCI - WIND CHILL INDEX
   HX - HEAT INDEX
  VSB - VISIBILITY
$$





USA.gov is the U.S. government's official web portal to all federal, state and local government web resources and services.